Regional Weather Roundup
Issued by NWS

Home | Current Version | Previous Version | Text Only | Print | Product List | Glossary Off
Versions: 1 2 3 4 5 6 7 8 9 10 11 12 13 14 15 16 17 18 19 20 21 22 23 24 25 26 27 28 29 30 31 32 33 34 35 36 37 38 39 40 41 42 43 44 45 46 47 48 49 50

000
ASUS43 KIND 011209
RWRIN

WEATHER ROUNDUP FOR INDIANA
NATIONAL WEATHER SERVICE INDIANAPOLIS IN
700 AM EST SUN FEB 01 2015

NOTE: "FAIR" INDICATES FEW OR NO CLOUDS BELOW 12,000 FEET WITH NO
SIGNIFICANT WEATHER AND/OR OBSTRUCTIONS TO VISIBILITY.

* - STATION DOES NOT REPORT WEATHER SUCH AS PRECIPITATION OR FOG.

+ - STATION NOT QUALITY CONTROLLED BY THE NATIONAL WEATHER SERVICE.
    USE DATA WITH CAUTION...ESPECIALLY DEWPOINT AND RELATIVE
    HUMIDITY OBSERVATIONS.

INZ001>003-010>013-019-020-011300-
NORTHWEST INDIANA

CITY           SKY/WX    TMP DP  RH WIND       PRES   REMARKS
GARY /AIRPORT/ LGT SNOW  34  32  93 CALM      30.03F
KNOX *+        CLOUDY    32  28  86 SE5       30.02F VSB 3/4 WCI  27
LA PORTE +     LGT SNOW  33  33 100 SE3       30.03S
6HR MIN TEMP:  33; 6HR MAX TEMP:  34; 6HR PCP:  0.08;

MICHIGAN CITY+ LGT SNOW  32  30  93 CALM      30.03F VSB 1
MONTICELLO +   LGT SNOW  32  32 100 NE6       29.98F WCI  26
6HR MIN TEMP:  32; 6HR MAX TEMP:  32; 6HR PCP:  0.16;

RENSSELAER +   LGT SNOW  32  32 100 E5        29.99F WCI  27
VALPARAISO     SNOW      32  31  96 E7        30.01F VSB 1/2 WCI  26
6HR MIN TEMP:  32; 6HR MAX TEMP:  32; 6HR PCP:  0.20;


$$

LMZ046-743>745-011300-
SOUTHERN LAKE MICHIGAN

STATION/POSITION TIME  TEMP WIND        PRES
                       AIR  DIR/SP/G
                 (UTC) (F)  (DEG/KT/KT) (MB)
MICHIGAN CITY    1200   30   70/  7/  8   N/A

$$

INZ004-005-014>016-021>024-011300-
NORTH CENTRAL INDIANA

CITY           SKY/WX    TMP DP  RH WIND       PRES   REMARKS
GOSHEN         LGT SNOW  32  31  96 E6        30.05F FOG     WCI  26
6HR MIN TEMP:  32; 6HR MAX TEMP:  33; 6HR PCP:  0.12;

LOGANSPORT +   LGT SNOW  32  32 100 E6        30.01F WCI  26
ROCHESTER +    LGT SNOW  34 N/A N/A E6        30.03F WCI  29
SOUTH BEND     NOT AVBL
WARSAW +       LGT SNOW  32  32 100 CALM      30.05F

$$

INZ006>009-017-018-025>027-011300-
NORTHEAST INDIANA

CITY           SKY/WX    TMP DP  RH WIND       PRES   REMARKS
ANGOLA *+      CLOUDY    28  28 100 E9        30.07S WCI  20
AUBURN +       LGT SNOW  32  32 100 CALM      30.08S
FORT WAYNE     LGT SNOW  32  32 100 SE7       30.08F VSB 3/4 WCI  26
6HR MIN TEMP:  32; 6HR MAX TEMP:  33; 6HR PCP:  0.17;

HUNTINGTON +   MIX PCPN  32  29  90 SE3       30.06F
6HR MIN TEMP:  32; 6HR MAX TEMP:  32; 6HR PCP:  0.09;


$$

INZ028-029-035-036-043>045-051>053-011300-
WEST CENTRAL INDIANA

CITY           SKY/WX    TMP DP  RH WIND       PRES   REMARKS
CRAWFORDSVL +  CLOUDY    32  24  71 E9        29.95F WCI  24
6HR MIN TEMP:  31; 6HR MAX TEMP:  32;

GREENCASTLE +  CLOUDY    32  27  80 SE9       29.96F WCI  24
LAFAYETTE      CLOUDY    32  32 100 E10       29.96F WCI  24
6HR MIN TEMP:  32; 6HR MAX TEMP:  32; 6HR PCP:  0.05;

TERRE HAUTE    CLOUDY    34  27  75 E8        29.93F WCI  27
6HR MIN TEMP:  33; 6HR MAX TEMP:  34; 6HR PCP: TRACE;


$$

INZ030>032-037>040-046>048-054>057-064-065-011300-
CENTRAL INDIANA

CITY           SKY/WX    TMP DP  RH WIND       PRES   REMARKS
CP ATTERBURY + CLOUDY    32  30  93 CALM      29.99F
COLUMBUS       CLOUDY    32  28  86 E6        30.01  WCI  26
FRANKFORT +    CLOUDY    33  33 100 NE8       29.97F WCI  27
                                      6HR PCP:  0.02;

GREENWOOD *+   CLOUDY    32  27  80 E9        29.98F WCI  24
INDIANAPOLIS   CLOUDY    30  28  92 E9        29.98F WCI  22
6HR MIN TEMP:  30; 6HR MAX TEMP:  30; 6HR PCP: TRACE;

-EAGLE CREEK   CLOUDY    32  29  88 E8        29.97F WCI  25
6HR MIN TEMP:  31; 6HR MAX TEMP:  32; 6HR PCP:  0.01;

KOKOMO *+      CLOUDY    34  30  86 E9        30.00F WCI  26
6HR MIN TEMP:  32; 6HR MAX TEMP:  34; 6HR PCP:  0.14;

MARION +       LGT SNOW  32  32 100 E8        30.02F WCI  25
MT COMFORT *+  CLOUDY    32  30  93 E5        29.99F WCI  27
SHELBYVILLE    CLOUDY    35  28  75 E10       29.99F WCI  27
6HR MIN TEMP:  33; 6HR MAX TEMP:  36;

ZIONSVILLE +   CLOUDY    33  29  86 E9        29.98S WCI  25
6HR MIN TEMP:  32; 6HR MAX TEMP:  33; 6HR PCP:  0.02;


$$

INZ033-034-041-042-049-050-058-059-011300-
EAST CENTRAL INDIANA

CITY           SKY/WX    TMP DP  RH WIND       PRES   REMARKS
MUNCIE         LGT SNOW  33  31  92 E10       30.02F FOG     WCI  25
6HR MIN TEMP:  32; 6HR MAX TEMP:  33; 6HR PCP:  0.08;


$$

INZ060-061-067>069-081>083-085>088-011300-
SOUTHWEST INDIANA

CITY           SKY/WX    TMP DP  RH WIND       PRES   REMARKS
EVANSVILLE     CLOUDY    43  22  43 SE3       29.93F
6HR MIN TEMP:  37; 6HR MAX TEMP:  43;

HUNTINGBURG *+ CLOUDY    39  21  48 SE12      29.95F
6HR MIN TEMP:  36; 6HR MAX TEMP:  39;

WASHINGTON +   CLOUDY    37  20  50 SE9       29.93F
6HR MIN TEMP:  33; 6HR MAX TEMP:  37;


$$

INZ062-063-066-070>080-084-089>092-011300-
SOUTH CENTRAL AND SOUTHEAST INDIANA

CITY           SKY/WX    TMP DP  RH WIND       PRES   REMARKS
BLOOMINGTON    CLOUDY    34  24  67 SE7       29.95F WCI  28
6HR MIN TEMP:  33; 6HR MAX TEMP:  34;

NORTH VERNON + CLOUDY    36  25  64 NE3       30.01F
SEYMOUR +      CLOUDY    34  28  80 E6        30.00F WCI  29

$$



USA.gov is the U.S. government's official web portal to all federal, state and local government web resources and services.